Location: Chervonnoye
(48.6000°N, 34.4000°E)
Time: 20:05:54
(UTC+00:00)

Cosmos 1939 Rocket - Pass Details

Date: 23 November 2020
Orbit: 532 x 584 km, 97.4° (Epoch: 27 January)

Event Time Altitude Azimuth Distance (km) Brightness Sun altitude
Rises 16:08:26 0° 181° (S) 2,664 6.4 -21.7°
Reaches altitude 10° 16:10:36 10° 188° (S) 1,780 5.6 -22.0°
Maximum altitude 16:14:16 44° 261° (W) 752 3.9 -22.6°
Drops below altitude 10° 16:18:01 10° 335° (NNW) 1,809 5.7 -23.2°
Sets 16:20:14 0° 342° (NNW) 2,713 6.5 -23.6°
